[[{"header":{"parameterUnit":"m.s-1","parameterCategory":2,"la1":30.2991,"la2":30.254,"lo1":-89.0895,"lo2":-89.0444,"dy":0.0017,"dx":0.0017,"nx":28,"ny":28,"refTime":"2024-08-25T03:00:00:Z","depth":"0","parameterNumber":2,"parameterNumberName":"U-component_of_CURRENTS"},"data":[0,0,0,0,0,0,0,0,0,0,0,0,0,0,0,0,0,0,0,0,0,0,0,0,0,0,0,0,0,0,0,0,0,0,0,0,0,0,0,0,0,0,0,0,0,0,0,0,0,0,0,0,0,0,0,0,0,0,0.1839,0.1839,0,0.1867,0.1867,0.1867,0.1866,0.1866,0.1865,0.1865,0.1868,0.1868,0.1869,0,0,0,0,0,0,0,0,0,0,0,0,0,0.1793,0.1794,0.1838,0.1839,0.1839,0.1867,0.1867,0.1867,0.1866,0.1866,0.1865,0.1865,0.1868,0.1868,0.1869,0,0,0,0,0,0,0,0,0,0,0,0,0,0.1815,0.1794,0.1838,0.1843,0.1844,0.1867,0.1867,0.1867,0.1866,0.1866,0.1865,0.1865,0.1868,0.1868,0.1869,0.1881,0,0,0.1871,0.1871,0,0,0,0,0,0,0,0,0.1814,0.1817,0.1842,0.1843,0.1843,0.1863,0.1852,0.1871,0.1866,0.1856,0.1865,0.1864,0.1865,0.1866,0.1871,0.1882,0.1882,0.1871,0.1871,0.1871,0.1871,0,0,0,0,0,0,0,0.1813,0.1816,0.1849,0.1842,0.1843,0.1847,0.1849,0.1856,0.1862,0.1857,0.1857,0.1862,0.1865,0.1871,0.1871,0.1882,0.1871,0.1871,0.1871,0.1872,0.1931,0.1933,0,0,0,0,0,0,0.1811,0.1814,0.1848,0.185,0.1828,0.1848,0.1851,0.1856,0.1862,0.1863,0.1863,0.1862,0.187,0.187,0.1871,0.192,0.1871,0.1872,0.1872,0.193,0.1932,0.1933,0,0,0,0,0,0,0.181,0.1814,0.1847,0.1833,0.1838,0.1849,0.1856,0.1857,0.1865,0.1867,0.1867,0.1869,0.187,0.187,0.1886,0.1919,0.1872,0.1872,0.1929,0.1931,0.1932,0.1996,0,0,0,0,0,0,0.1809,0.1813,0.1817,0.1833,0.1838,0.187,0.1856,0.1858,0.1869,0.1869,0.1873,0.1872,0.1869,0.1886,0.1887,0.1919,0.1873,0.1927,0.193,0.1932,0.1992,0.2,0.2006,0,0,0,0,0,0.1807,0.1816,0.1817,0.1821,0.1843,0.1871,0.1874,0.188,0.187,0.1883,0.1883,0.1872,0.1902,0.1887,0.1888,0.1921,0.1926,0.1929,0.1932,0.1989,0.1999,0.2006,0,0,0,0,0,0,0.1799,0.1818,0.1818,0.1832,0.1854,0.1871,0.1882,0.1883,0.1894,0.1891,0.1885,0.1886,0.1914,0.1907,0.189,0.1945,0.1913,0.1917,0.1957,0.1966,0.1972,0.198,0.1873,0,0,0,0,0,0.1799,0.181,0.1831,0.1844,0.1855,0.1868,0.1878,0.1885,0.1897,0.1901,0.1905,0.1911,0.1927,0.1936,0.1945,0.1973,0.1984,0.1995,0.2002,0.2008,0.2015,0.2054,0.2065,0.1942,0.1942,0.1942,0,0,0.1799,0.1811,0.1816,0.1843,0.1857,0.1888,0.1873,0.1896,0.1922,0.1899,0.1931,0.1934,0.1939,0.1973,0.1986,0.1971,0.2054,0.2012,0.2017,0.2021,0.2058,0.207,0.2081,0.1944,0.1944,0.1944,0,0,0.1813,0.1817,0.1836,0.1857,0.1884,0.19,0.1909,0.1933,0.1943,0.197,0.1968,0.1989,0.2005,0.2027,0.2036,0.2086,0.2087,0.2088,0.2134,0.2172,0.2183,0.2192,0.2243,0.2256,0.2094,0.2095,0.2095,0,0.1809,0.1841,0.1847,0.1876,0.19,0.1909,0.1945,0.1962,0.1988,0.2007,0.1987,0.2034,0.2035,0.2092,0.211,0.2104,0.2127,0.2102,0.2182,0.2191,0.22,0.225,0.2263,0.2098,0.2098,0.2097,0.2097,0,0.1845,0.1871,0.1887,0.1929,0.1955,0.1988,0.2016,0.2041,0.2049,0.2067,0.2113,0.2116,0.2148,0.2154,0.2146,0.2215,0.2213,0.2185,0.2162,0.2216,0.2265,0.2279,0.2103,0.2102,0.2101,0.21,0,0,0.1831,0.19,0.1903,0.1935,0.1988,0.2012,0.2063,0.2116,0.2149,0.2169,0.2217,0.2246,0.2246,0.2257,0.2256,0.2286,0.2368,0.2264,0.2265,0.2317,0.247,0.2529,0.2549,0.2354,0.2356,0.2358,0.2488,0,0.186,0.1924,0.1954,0.2018,0.2057,0.209,0.2134,0.2178,0.2209,0.2255,0.2273,0.2313,0.2287,0.2305,0.2335,0.2358,0.2403,0.2337,0.2406,0.2409,0.2457,0.2566,0.2466,0.2578,0.25,0.2503,0.2504,0,0.189,0.1928,0.1996,0.2069,0.2087,0.2122,0.2198,0.2239,0.2306,0.2329,0.2377,0.2391,0.2457,0.2408,0.2496,0.2456,0.2475,0.2484,0.2488,0.2529,0.2493,0.2506,0.2605,0.2516,0.2524,0.2523,0.2521,0,0.1882,0.1961,0.2016,0.2041,0.2119,0.215,0.219,0.2257,0.2306,0.238,0.2428,0.2488,0.2531,0.2562,0.2604,0.2553,0.2696,0.2625,0.2702,0.2706,0.2628,0.2623,0.2649,0.2692,0.2691,0.2691,0.2691,0,0.1907,0.1947,0.2011,0.2036,0.2095,0.2143,0.221,0.2258,0.234,0.2415,0.2462,0.2543,0.2569,0.2654,0.2659,0.2758,0.2753,0.2748,0.2757,0.2651,0.2646,0.2569,0.2522,0.2696,0.2695,0.2694,0.2693,0,0.1895,0.1942,0.2002,0.2072,0.2094,0.2129,0.2221,0.2267,0.235,0.2455,0.2489,0.261,0.2735,0.2786,0.2859,0.2853,0.2846,0.2944,0.2835,0.2831,0.2802,0.2762,0.2738,0.2651,0.3046,0.3048,0.305,0,0.1897,0.1927,0.2006,0.2034,0.2064,0.2124,0.2163,0.2255,0.2318,0.2506,0.2558,0.2724,0.2837,0.3002,0.3042,0.3115,0.296,0.3038,0.2921,0.2834,0.2794,0.266,0.2575,0.2842,0.2842,0.2842,0.2842,0,0.189,0.1918,0.196,0.2013,0.2055,0.2115,0.2184,0.2235,0.2361,0.2469,0.2628,0.274,0.2954,0.3005,0.313,0.3144,0.2895,0.3047,0.2962,0.2672,0.2516,0.2424,0.2733,0.2844,0.2844,0.2844,0.2843,0.2843,0.1872,0.1894,0.194,0.1988,0.2034,0.208,0.2102,0.2194,0.2293,0.2423,0.2594,0.2715,0.2868,0.3052,0.3061,0.3015,0.2977,0.2886,0.2859,0.2741,0.2613,0.2964,0.3082,0.3083,0.3084,0.3085,0.3086,0,0.1835,0.1865,0.1911,0.1954,0.1972,0.2023,0.2093,0.2099,0.2174,0.2334,0.2461,0.262,0.2707,0.2798,0.2877,0.2804,0.2627,0.2716,0.245,0.2383,0.2704,0.265,0.2672,0.2672,0.2672,0.2672,0.2672,0.2672,0.1817,0.1836,0.1862,0.1871,0.1898,0.1889,0.1908,0.1938,0.2019,0.2117,0.2209,0.2335,0.2563,0.2697,0.2656,0.259,0.235,0.2297,0.2266,0.2443,0.2453,0.2462,0.2399,0.2367,0.2367,0.181,0.1806,0.1803]},{"header":{"parameterUnit":"m.s-1","parameterCategory":2,"la1":30.2991,"la2":30.254,"lo1":-89.0895,"lo2":-89.0444,"dy":0.0017,"dx":0.0017,"nx":28,"ny":28,"refTime":"2024-08-25T03:00:00:Z","depth":"0","parameterNumber":3,"parameterNumberName":"V-component_of_CURRENTS"},"data":[0,0,0,0,0,0,0,0,0,0,0,0,0,0,0,0,0,0,0,0,0,0,0,0,0,0,0,0,0,0,0,0,0,0,0,0,0,0,0,0,0,0,0,0,0,0,0,0,0,0,0,0,0,0,0,0,0,0,-0.0672,-0.0672,0,-0.0691,-0.0692,-0.0693,-0.0735,-0.0735,-0.0736,-0.0736,-0.0842,-0.0845,-0.0847,0,0,0,0,0,0,0,0,0,0,0,0,0,-0.0776,-0.0774,-0.0672,-0.0672,-0.0672,-0.0691,-0.0692,-0.0693,-0.0735,-0.0735,-0.0736,-0.0737,-0.0842,-0.0844,-0.0847,0,0,0,0,0,0,0,0,0,0,0,0,0,-0.076,-0.0773,-0.0672,-0.0692,-0.0694,-0.0691,-0.0692,-0.0693,-0.0735,-0.0735,-0.0736,-0.0737,-0.0841,-0.0844,-0.0848,-0.0853,0,0,-0.0858,-0.086,0,0,0,0,0,0,0,0,-0.0761,-0.0757,-0.0689,-0.0691,-0.0693,-0.0708,-0.0768,-0.075,-0.0734,-0.0723,-0.0736,-0.0737,-0.0803,-0.0809,-0.0815,-0.0858,-0.0863,-0.0859,-0.0861,-0.0862,-0.0863,0,0,0,0,0,0,0,-0.0762,-0.0757,-0.0683,-0.0689,-0.0691,-0.0737,-0.0735,-0.0765,-0.0763,-0.0724,-0.0726,-0.0722,-0.0805,-0.0812,-0.0818,-0.0865,-0.0859,-0.0862,-0.0864,-0.0865,-0.0899,-0.0898,0,0,0,0,0,0,-0.0745,-0.0757,-0.0683,-0.0683,-0.0725,-0.0733,-0.0731,-0.0705,-0.076,-0.0768,-0.0722,-0.0724,-0.0805,-0.0814,-0.0822,-0.0823,-0.0862,-0.0866,-0.0868,-0.09,-0.0898,-0.0897,0,0,0,0,0,0,-0.0747,-0.0737,-0.0682,-0.072,-0.0715,-0.0729,-0.0701,-0.0705,-0.0709,-0.0757,-0.0767,-0.072,-0.0806,-0.0817,-0.0826,-0.0828,-0.0867,-0.087,-0.0901,-0.0899,-0.0898,-0.0831,0,0,0,0,0,0,-0.0749,-0.0737,-0.0716,-0.0717,-0.0712,-0.0671,-0.07,-0.0705,-0.0704,-0.0707,-0.0759,-0.077,-0.0808,-0.082,-0.0829,-0.0833,-0.0873,-0.0903,-0.09,-0.0898,-0.0835,-0.0827,-0.082,0,0,0,0,0,-0.0753,-0.0716,-0.0714,-0.0706,-0.068,-0.067,-0.0671,-0.0689,-0.0702,-0.0697,-0.072,-0.0768,-0.0813,-0.0821,-0.0833,-0.0838,-0.0904,-0.0901,-0.0899,-0.0838,-0.0828,-0.0821,0,0,0,0,0,0,-0.0749,-0.0716,-0.0715,-0.0669,-0.0666,-0.0675,-0.0667,-0.068,-0.0693,-0.0697,-0.0747,-0.0759,-0.0768,-0.0803,-0.081,-0.0838,-0.0869,-0.0868,-0.0819,-0.0811,-0.0804,-0.0792,-0.0876,0,0,0,0,0,-0.0735,-0.0696,-0.0686,-0.0648,-0.0643,-0.0654,-0.0653,-0.0662,-0.0672,-0.0679,-0.0712,-0.0743,-0.0765,-0.0786,-0.0809,-0.0824,-0.0855,-0.0834,-0.0827,-0.0821,-0.0817,-0.0861,-0.0858,-0.0888,-0.0888,-0.0888,0,0,-0.072,-0.0699,-0.0675,-0.0645,-0.0644,-0.0621,-0.0656,-0.0643,-0.0632,-0.0689,-0.0685,-0.0717,-0.0759,-0.077,-0.078,-0.0802,-0.0823,-0.0817,-0.0812,-0.0812,-0.0858,-0.0856,-0.0853,-0.0886,-0.0887,-0.0887,0,0,-0.0669,-0.0653,-0.0605,-0.0601,-0.0588,-0.0594,-0.0586,-0.0591,-0.0603,-0.0598,-0.0635,-0.0661,-0.0694,-0.0729,-0.075,-0.0717,-0.0777,-0.0728,-0.0697,-0.0739,-0.0738,-0.0737,-0.075,-0.0751,-0.0734,-0.0734,-0.0734,0,-0.0653,-0.0588,-0.0594,-0.0558,-0.0546,-0.0575,-0.0535,-0.055,-0.0559,-0.0568,-0.0586,-0.0633,-0.0676,-0.0697,-0.0687,-0.0705,-0.0726,-0.0728,-0.0732,-0.0731,-0.0732,-0.0746,-0.0748,-0.073,-0.0731,-0.0731,-0.0731,0,-0.0568,-0.0528,-0.0504,-0.0461,-0.0454,-0.0428,-0.0443,-0.045,-0.0469,-0.0488,-0.0511,-0.0562,-0.0596,-0.0616,-0.0643,-0.0666,-0.0677,-0.0712,-0.0756,-0.0725,-0.0741,-0.0744,-0.0725,-0.0726,-0.0728,-0.0728,0,0,-0.0504,-0.0449,-0.0443,-0.0415,-0.0403,-0.0387,-0.0377,-0.0377,-0.0376,-0.0411,-0.0413,-0.0466,-0.0509,-0.0534,-0.0584,-0.0627,-0.0645,-0.0665,-0.0669,-0.0682,-0.0715,-0.0684,-0.0685,-0.0684,-0.0685,-0.0685,-0.0717,0,-0.0435,-0.0344,-0.0342,-0.0277,-0.0236,-0.0273,-0.0261,-0.0277,-0.0306,-0.0322,-0.0396,-0.0414,-0.0474,-0.0493,-0.0544,-0.0619,-0.0653,-0.0631,-0.074,-0.0742,-0.0723,-0.0688,-0.0624,-0.0645,-0.0721,-0.0722,-0.0722,0,-0.0351,-0.0303,-0.0217,-0.0185,-0.0173,-0.0149,-0.0151,-0.0148,-0.0196,-0.0222,-0.0271,-0.0325,-0.0388,-0.0443,-0.0562,-0.0543,-0.0617,-0.0679,-0.0683,-0.0682,-0.0718,-0.0693,-0.0649,-0.0801,-0.0728,-0.0727,-0.0727,0,-0.0293,-0.0223,-0.015,-0.0136,-0.0104,-0.0091,-0.0086,-0.0117,-0.0113,-0.0163,-0.0162,-0.0256,-0.0286,-0.0404,-0.0528,-0.0548,-0.0649,-0.07,-0.0737,-0.0735,-0.0716,-0.0711,-0.0837,-0.0777,-0.0777,-0.0777,-0.0776,0,-0.0217,-0.0166,-0.0119,-0.0083,-0.0022,-0.0031,0.0006,-0.0014,-0.003,-0.0004,-0.0108,-0.0101,-0.0279,-0.0358,-0.0492,-0.0607,-0.0625,-0.0716,-0.0742,-0.0686,-0.0678,-0.0839,-0.0922,-0.0778,-0.0778,-0.0777,-0.0777,0,-0.016,-0.0124,-0.0049,-0.0003,0.0012,0.005,0.008,0.0102,0.0074,0.0106,0.0101,0.0019,-0.0072,-0.0239,-0.0414,-0.0536,-0.0733,-0.0707,-0.061,-0.0624,-0.0802,-0.088,-0.1013,-0.1072,-0.0755,-0.0755,-0.0754,0,-0.0114,-0.0065,0.0007,0.0052,0.0077,0.0126,0.0162,0.0154,0.0188,0.0194,0.0226,0.0155,0.0143,-0.0095,-0.0317,-0.0521,-0.069,-0.0624,-0.0661,-0.0789,-0.0898,-0.0964,-0.101,-0.0604,-0.0602,-0.0601,-0.06,0,-0.0039,-0.002,0.0039,0.013,0.0187,0.025,0.0304,0.0353,0.0361,0.0416,0.0474,0.047,0.0266,0.0108,-0.018,-0.0351,-0.0702,-0.0602,-0.0775,-0.0812,-0.0854,-0.0928,-0.0594,-0.0587,-0.0589,-0.0589,-0.059,-0.0591,0.0009,0.0059,0.0132,0.0217,0.0288,0.0378,0.0453,0.053,0.0633,0.0749,0.0703,0.0764,0.0475,0.011,-0.0137,-0.0569,-0.0606,-0.0709,-0.0798,-0.0857,-0.0905,-0.0522,-0.0524,-0.0524,-0.0525,-0.0526,-0.0526,0,0.0082,0.0135,0.0216,0.0327,0.0423,0.0438,0.0559,0.0658,0.0829,0.094,0.1032,0.0949,0.061,0.0188,-0.0374,-0.0698,-0.0846,-0.0911,-0.1013,-0.1056,-0.0745,-0.073,-0.0727,-0.0727,-0.0727,-0.0727,-0.0727,-0.0727,0.0128,0.022,0.026,0.0433,0.0511,0.0656,0.0742,0.0899,0.1016,0.1207,0.1279,0.1288,0.0948,-0.0059,-0.0797,-0.0987,-0.1233,-0.126,-0.1424,-0.1238,-0.1227,-0.1217,-0.1225,-0.1326,-0.1327,-0.1678,-0.1682,-0.1685]}],[{"header":{"parameterUnit":"m.s-1","parameterCategory":2,"la1":30.2991,"la2":30.254,"lo1":-89.0895,"lo2":-89.0444,"dy":0.0017,"dx":0.0017,"nx":28,"ny":28,"refTime":"2024-08-25T03:00:00:Z","depth":"2","parameterNumber":2,"parameterNumberName":"U-component_of_CURRENTS"},"data":[0,0,0,0,0,0,0,0,0,0,0,0,0,0,0,0,0,0,0,0,0,0,0,0,0,0,0,0,0,0,0,0,0,0,0,0,0,0,0,0,0,0,0,0,0,0,0,0,0,0,0,0,0,0,0,0,0,0,0.1842,0.1842,0,0.1877,0.1877,0.1878,0.1889,0.1889,0.1889,0.1889,0.1917,0.1917,0.1918,0,0,0,0,0,0,0,0,0,0,0,0,0,0.1841,0.1841,0.1842,0.1842,0.1843,0.1877,0.1877,0.1878,0.1889,0.1889,0.1889,0.1888,0.1916,0.1917,0.1918,0,0,0,0,0,0,0,0,0,0,0,0,0,0.1854,0.184,0.1841,0.1853,0.1855,0.1877,0.1877,0.1878,0.1889,0.1889,0.1889,0.1888,0.1916,0.1917,0.1918,0.1927,0,0,0.1922,0.1923,0,0,0,0,0,0,0,0,0.1853,0.1854,0.1851,0.1853,0.1854,0.188,0.1888,0.1894,0.1889,0.1874,0.1889,0.1888,0.1905,0.1907,0.1912,0.1928,0.1929,0.1922,0.1923,0.1923,0.1924,0,0,0,0,0,0,0,0.1852,0.1853,0.1854,0.1852,0.1854,0.1877,0.1878,0.1889,0.1888,0.1876,0.1877,0.1883,0.1905,0.191,0.1912,0.193,0.1922,0.1923,0.1924,0.1924,0.1989,0.199,0,0,0,0,0,0,0.1848,0.1851,0.1853,0.1855,0.1855,0.1877,0.1878,0.187,0.1888,0.1891,0.1883,0.1883,0.1908,0.1911,0.1913,0.1963,0.1923,0.1924,0.1925,0.1988,0.1989,0.199,0,0,0,0,0,0,0.1847,0.1847,0.1852,0.1856,0.1859,0.1877,0.1868,0.1871,0.1887,0.1894,0.1897,0.1898,0.1908,0.1912,0.1933,0.1963,0.1925,0.1926,0.1987,0.1988,0.199,0.2037,0,0,0,0,0,0,0.1847,0.1846,0.1841,0.1855,0.1858,0.1871,0.1869,0.1872,0.1891,0.1892,0.1907,0.1909,0.1909,0.1931,0.1934,0.1964,0.1927,0.1986,0.1988,0.1989,0.2035,0.204,0.2045,0,0,0,0,0,0.1846,0.1841,0.184,0.1841,0.1849,0.1871,0.1875,0.1887,0.1892,0.1901,0.1912,0.1909,0.1946,0.1933,0.1936,0.1967,0.1985,0.1987,0.1989,0.2032,0.2039,0.2045,0,0,0,0,0,0,0.1834,0.1843,0.1841,0.1837,0.1855,0.1874,0.1884,0.1895,0.1912,0.1914,0.192,0.1923,0.1953,0.1951,0.1937,0.199,0.1966,0.1969,0.1998,0.2004,0.201,0.2026,0.1928,0,0,0,0,0,0.183,0.1834,0.1844,0.1845,0.1851,0.187,0.1882,0.1892,0.1908,0.1916,0.1929,0.1944,0.1964,0.1977,0.1987,0.2016,0.2035,0.2038,0.2043,0.2048,0.2064,0.2112,0.2124,0.1998,0.1998,0.1998,0,0,0.182,0.1834,0.183,0.1845,0.1858,0.188,0.1877,0.1898,0.1926,0.1916,0.1955,0.1962,0.1975,0.2007,0.2021,0.201,0.2095,0.2051,0.2055,0.2068,0.2116,0.2129,0.214,0.1999,0.1999,0.1999,0,0,0.1827,0.1821,0.1831,0.1851,0.1878,0.1891,0.1901,0.1924,0.1941,0.1974,0.1979,0.2005,0.203,0.2051,0.2064,0.2106,0.2119,0.2109,0.2156,0.2203,0.2214,0.2224,0.2268,0.2282,0.2115,0.2115,0.2116,0,0.1815,0.1836,0.1839,0.1866,0.1888,0.19,0.1925,0.1946,0.1978,0.2003,0.1991,0.2056,0.2056,0.2117,0.2128,0.2121,0.2149,0.213,0.2211,0.2222,0.2231,0.2274,0.2288,0.2118,0.2118,0.2117,0.2117,0,0.1839,0.1858,0.187,0.1907,0.1926,0.1953,0.1979,0.2008,0.2029,0.2055,0.2113,0.2121,0.2163,0.2167,0.216,0.2233,0.2232,0.221,0.2197,0.2247,0.2288,0.2303,0.2122,0.2121,0.212,0.2119,0,0,0.1801,0.1871,0.1875,0.1905,0.1953,0.197,0.2021,0.2072,0.2117,0.2148,0.2209,0.2243,0.2253,0.2268,0.227,0.2308,0.2388,0.2292,0.2293,0.2339,0.2502,0.2442,0.2451,0.2385,0.2388,0.239,0.2506,0,0.182,0.1877,0.191,0.1965,0.1991,0.203,0.208,0.2128,0.2168,0.2228,0.226,0.231,0.2292,0.2315,0.2354,0.238,0.2427,0.2359,0.2444,0.2446,0.239,0.2466,0.2269,0.2351,0.252,0.2522,0.2524,0,0.1831,0.1873,0.1926,0.2005,0.2019,0.2058,0.2139,0.2186,0.227,0.2306,0.2369,0.239,0.2463,0.2423,0.2526,0.2487,0.2505,0.2519,0.2523,0.2463,0.2413,0.2327,0.2371,0.2547,0.2546,0.2544,0.2542,0,0.1805,0.1883,0.1929,0.1955,0.204,0.208,0.2128,0.2211,0.2269,0.236,0.2417,0.2491,0.2549,0.2585,0.2618,0.2582,0.2722,0.267,0.2641,0.2636,0.2483,0.246,0.2747,0.2747,0.2747,0.2746,0.2746,0,0.1816,0.1851,0.1924,0.1951,0.2017,0.2072,0.2155,0.2218,0.2319,0.2389,0.2457,0.2529,0.2595,0.2671,0.267,0.2716,0.2772,0.2676,0.2672,0.2493,0.2471,0.2643,0.2629,0.2751,0.275,0.2749,0.2748,0,0.1787,0.1837,0.1892,0.1978,0.2009,0.2052,0.2171,0.2231,0.2336,0.2432,0.2468,0.26,0.2694,0.2753,0.2828,0.2796,0.2823,0.282,0.2607,0.2575,0.2691,0.2679,0.28,0.2799,0.2798,0.2797,0.2797,0,0.1784,0.1811,0.1892,0.1924,0.1969,0.2046,0.2104,0.2223,0.2286,0.2459,0.2499,0.2643,0.2691,0.2809,0.2798,0.2817,0.2851,0.2636,0.2517,0.2718,0.2702,0.2691,0.2679,0.2339,0.2335,0.2331,0.2328,0,0.1776,0.1799,0.1834,0.1896,0.1956,0.2025,0.2112,0.2161,0.2291,0.2371,0.2465,0.2516,0.2651,0.2585,0.2644,0.2618,0.261,0.2564,0.2858,0.2346,0.229,0.2272,0.2275,0.2297,0.23,0.2303,0.2304,0.2306,0.1754,0.177,0.1808,0.1863,0.1918,0.1964,0.199,0.2062,0.2127,0.2192,0.2316,0.2327,0.2389,0.2363,0.2317,0.2311,0.247,0.2349,0.2357,0.237,0.2286,0.223,0.2211,0.2214,0.2216,0.2218,0.2219,0,0.1713,0.1735,0.1778,0.1813,0.1821,0.1899,0.1962,0.1941,0.1936,0.2021,0.205,0.1922,0.1907,0.1989,0.1931,0.194,0.1898,0.1865,0.1785,0.1819,0.1849,0.1734,0.1516,0.1513,0.1511,0.1509,0,0,0.1689,0.169,0.1708,0.1696,0.1727,0.172,0.1734,0.1695,0.1717,0.1667,0.1668,0.1791,0.1912,0.1662,0.1658,0.1575,0.1673,0.1521,0.2094,0.2033,0.2059,0.2151,0.2018,0,0,0,0,0]},{"header":{"parameterUnit":"m.s-1","parameterCategory":2,"la1":30.2991,"la2":30.254,"lo1":-89.0895,"lo2":-89.0444,"dy":0.0017,"dx":0.0017,"nx":28,"ny":28,"refTime":"2024-08-25T03:00:00:Z","depth":"2","parameterNumber":3,"parameterNumberName":"V-component_of_CURRENTS"},"data":[0,0,0,0,0,0,0,0,0,0,0,0,0,0,0,0,0,0,0,0,0,0,0,0,0,0,0,0,0,0,0,0,0,0,0,0,0,0,0,0,0,0,0,0,0,0,0,0,0,0,0,0,0,0,0,0,0,0,-0.015,-0.0151,0,-0.0159,-0.0159,-0.0159,-0.0187,-0.0188,-0.0188,-0.0189,-0.0302,-0.0304,-0.0307,0,0,0,0,0,0,0,0,0,0,0,0,0,-0.0173,-0.0172,-0.015,-0.0151,-0.0151,-0.0159,-0.0159,-0.0159,-0.0187,-0.0188,-0.0188,-0.0189,-0.0301,-0.0304,-0.0307,0,0,0,0,0,0,0,0,0,0,0,0,0,-0.017,-0.0172,-0.015,-0.0166,-0.0168,-0.0159,-0.0159,-0.0159,-0.0187,-0.0188,-0.0189,-0.019,-0.03,-0.0304,-0.0307,-0.0308,0,0,-0.0318,-0.032,0,0,0,0,0,0,0,0,-0.017,-0.0169,-0.0164,-0.0165,-0.0167,-0.0174,-0.0208,-0.0214,-0.0186,-0.0179,-0.0189,-0.019,-0.0269,-0.0275,-0.0271,-0.0313,-0.0318,-0.0318,-0.0321,-0.0322,-0.0323,0,0,0,0,0,0,0,-0.017,-0.0169,-0.0153,-0.0164,-0.0166,-0.0178,-0.0178,-0.0209,-0.0219,-0.0179,-0.0182,-0.0183,-0.027,-0.0268,-0.0275,-0.032,-0.0318,-0.0321,-0.0324,-0.0325,-0.0394,-0.0393,0,0,0,0,0,0,-0.0168,-0.0168,-0.0153,-0.0153,-0.0172,-0.0177,-0.0177,-0.017,-0.0216,-0.0224,-0.0183,-0.0185,-0.0261,-0.027,-0.0279,-0.0296,-0.0322,-0.0325,-0.0327,-0.0394,-0.0394,-0.0393,0,0,0,0,0,0,-0.0169,-0.0166,-0.0152,-0.0163,-0.0162,-0.0175,-0.0167,-0.0169,-0.0175,-0.0218,-0.0227,-0.0187,-0.0262,-0.0274,-0.0302,-0.0301,-0.0327,-0.033,-0.0394,-0.0394,-0.0394,-0.0323,0,0,0,0,0,0,-0.0169,-0.0166,-0.0158,-0.0162,-0.0161,-0.014,-0.0166,-0.0169,-0.0175,-0.0178,-0.0225,-0.0235,-0.0264,-0.0296,-0.0305,-0.0306,-0.0333,-0.0395,-0.0394,-0.0394,-0.0326,-0.0321,-0.0316,0,0,0,0,0,-0.017,-0.0152,-0.0158,-0.0156,-0.015,-0.0139,-0.0139,-0.0153,-0.0174,-0.0164,-0.0199,-0.0234,-0.03,-0.0298,-0.0309,-0.0311,-0.0395,-0.0394,-0.0394,-0.0328,-0.0322,-0.0316,0,0,0,0,0,0,-0.017,-0.0153,-0.016,-0.0142,-0.0139,-0.0144,-0.0138,-0.0152,-0.0169,-0.018,-0.0227,-0.0239,-0.0264,-0.0296,-0.0293,-0.033,-0.0355,-0.0357,-0.0302,-0.0296,-0.0291,-0.0297,-0.0336,0,0,0,0,0,-0.0162,-0.0144,-0.0136,-0.0129,-0.012,-0.0131,-0.013,-0.0139,-0.0155,-0.0164,-0.02,-0.0239,-0.0266,-0.0288,-0.0316,-0.0335,-0.0366,-0.0345,-0.034,-0.0335,-0.0348,-0.0383,-0.0382,-0.0391,-0.0391,-0.0391,0,0,-0.0157,-0.0155,-0.0141,-0.0128,-0.0127,-0.0103,-0.0132,-0.0126,-0.0122,-0.0175,-0.0188,-0.0223,-0.0267,-0.0283,-0.0298,-0.0313,-0.0344,-0.0335,-0.033,-0.0346,-0.0383,-0.0382,-0.0381,-0.0391,-0.0391,-0.0391,0,0,-0.0135,-0.0136,-0.0102,-0.0095,-0.009,-0.0092,-0.009,-0.0093,-0.0106,-0.0118,-0.0156,-0.0188,-0.0232,-0.0259,-0.028,-0.0267,-0.0314,-0.0279,-0.0263,-0.0295,-0.0295,-0.0295,-0.0308,-0.031,-0.0279,-0.0279,-0.0279,0,-0.0124,-0.0095,-0.0095,-0.0068,-0.0058,-0.0084,-0.0049,-0.0062,-0.0082,-0.0093,-0.0117,-0.0181,-0.022,-0.0243,-0.0243,-0.0256,-0.0279,-0.0278,-0.0288,-0.0289,-0.0291,-0.0305,-0.0308,-0.0275,-0.0276,-0.0276,-0.0276,0,-0.0074,-0.0053,-0.0038,-0.0008,0.0004,0.0022,0.0015,0.0007,-0.0022,-0.004,-0.0074,-0.0126,-0.0164,-0.0182,-0.0214,-0.0241,-0.0253,-0.0273,-0.0301,-0.0286,-0.0301,-0.0305,-0.027,-0.0272,-0.0273,-0.0274,0,0,-0.0026,0.0,0.0007,0.0027,0.0037,0.0055,0.0057,0.0062,0.0058,0.0013,0.0008,-0.0058,-0.0098,-0.0125,-0.0168,-0.0213,-0.0236,-0.0251,-0.0255,-0.0259,-0.0298,-0.0273,-0.0276,-0.0259,-0.026,-0.0261,-0.0295,0,0.002,0.0081,0.0078,0.0127,0.0165,0.0139,0.0145,0.0133,0.0107,0.0091,0.0022,-0.0006,-0.007,-0.0092,-0.0142,-0.0214,-0.025,-0.0225,-0.0318,-0.0321,-0.0297,-0.0282,-0.0267,-0.0294,-0.0299,-0.03,-0.0301,0,0.0083,0.0111,0.0176,0.0198,0.0213,0.0229,0.0236,0.0236,0.0199,0.0168,0.0122,0.0074,0.0005,-0.0051,-0.017,-0.0152,-0.0224,-0.0286,-0.0288,-0.03,-0.0306,-0.0317,-0.0303,-0.0309,-0.0308,-0.0308,-0.0307,0,0.0132,0.0181,0.023,0.0241,0.0264,0.0275,0.0279,0.026,0.0267,0.0217,0.022,0.0126,0.0093,-0.0022,-0.0141,-0.0163,-0.0263,-0.03,-0.0343,-0.0341,-0.0366,-0.0365,-0.0385,-0.0385,-0.0385,-0.0385,-0.0385,0,0.0187,0.0226,0.0253,0.0281,0.0331,0.0324,0.0359,0.0339,0.0329,0.0362,0.0264,0.0276,0.0093,0.0027,-0.0105,-0.0221,-0.0229,-0.0342,-0.0352,-0.0337,-0.0333,-0.0386,-0.0385,-0.0387,-0.0386,-0.0386,-0.0386,0,0.0236,0.0253,0.0311,0.0344,0.0358,0.0393,0.0425,0.0451,0.0419,0.0465,0.0456,0.0383,0.0292,0.0135,-0.0038,-0.0153,-0.0283,-0.032,-0.0278,-0.0284,-0.0352,-0.0347,-0.0388,-0.0387,-0.0387,-0.0386,-0.0386,0,0.027,0.0303,0.0364,0.0402,0.0418,0.0463,0.0502,0.0494,0.0534,0.0553,0.0594,0.0521,0.0499,0.0264,0.0029,-0.0181,-0.0225,-0.0301,-0.0353,-0.0348,-0.0354,-0.0351,-0.0347,-0.0352,-0.0352,-0.0351,-0.0351,0,0.0328,0.0343,0.0392,0.0471,0.0526,0.0591,0.0649,0.0701,0.0717,0.0756,0.0813,0.0796,0.0581,0.0364,0.0071,-0.0076,-0.0274,-0.0298,-0.0308,-0.0344,-0.0315,-0.0321,-0.0319,-0.0347,-0.0347,-0.0348,-0.0348,-0.0348,0.0371,0.0411,0.0471,0.0547,0.0619,0.0719,0.0786,0.0857,0.0944,0.1002,0.098,0.0937,0.0688,0.0303,0.0061,-0.0215,-0.0219,-0.0334,-0.0336,-0.0338,-0.0318,-0.0289,-0.0311,-0.0312,-0.0312,-0.0312,-0.0312,0,0.0424,0.0467,0.0542,0.0641,0.0733,0.0756,0.0886,0.0947,0.107,0.1101,0.1117,0.0887,0.0644,0.0362,-0.0041,-0.0272,-0.0316,-0.0344,-0.0356,-0.0357,-0.0359,-0.0342,-0.0341,-0.0342,-0.0343,-0.0343,0,0,0.0457,0.0535,0.0573,0.0727,0.0794,0.0923,0.1005,0.1091,0.1135,0.1168,0.1123,0.1027,0.0709,0.0416,0.0105,-0.0119,-0.019,-0.0167,-0.0119,-0.0097,-0.0096,-0.0328,-0.03,0,0,0,0,0]}],[{"header":{"parameterUnit":"m.s-1","parameterCategory":2,"la1":30.2991,"la2":30.254,"lo1":-89.0895,"lo2":-89.0444,"dy":0.0017,"dx":0.0017,"nx":28,"ny":28,"refTime":"2024-08-25T03:00:00:Z","depth":"4","parameterNumber":2,"parameterNumberName":"U-component_of_CURRENTS"},"data":[0,0,0,0,0,0,0,0,0,0,0,0,0,0,0,0,0,0,0,0,0,0,0,0,0,0,0,0,0,0,0,0,0,0,0,0,0,0,0,0,0,0,0,0,0,0,0,0,0,0,0,0,0,0,0,0,0,0,0.0918,0.0918,0,0.0987,0.0988,0.0989,0.1035,0.1035,0.1035,0.1036,0.1138,0.114,0.1143,0,0,0,0,0,0,0,0,0,0,0,0,0,0.0791,0.0794,0.0918,0.0918,0.0919,0.0987,0.0988,0.0989,0.1035,0.1035,0.1035,0.1036,0.1137,0.114,0.1143,0,0,0,0,0,0,0,0,0,0,0,0,0,0.0853,0.0794,0.0917,0.095,0.0953,0.0987,0.0988,0.0989,0.1035,0.1035,0.1035,0.1036,0.1136,0.114,0.1144,0.1159,0,0,0.1155,0.1157,0,0,0,0,0,0,0,0,0.0849,0.0857,0.0944,0.0948,0.0952,0.1002,0.0981,0.1048,0.1035,0.1004,0.1036,0.1036,0.1095,0.1102,0.1115,0.1164,0.1168,0.1155,0.1158,0.1159,0.116,0,0,0,0,0,0,0,0.0845,0.0854,0.0946,0.0945,0.095,0.095,0.0959,0.0994,0.1048,0.1007,0.101,0.1017,0.1098,0.1111,0.1117,0.1169,0.1155,0.1158,0.1161,0.1162,0.1284,0.1285,0,0,0,0,0,0,0.0837,0.0851,0.0943,0.0948,0.09,0.0952,0.0962,0.0986,0.1047,0.1056,0.1017,0.1019,0.1104,0.1113,0.1121,0.1205,0.1159,0.1163,0.1165,0.1283,0.1284,0.1285,0,0,0,0,0,0,0.0834,0.0845,0.0941,0.0899,0.0911,0.0954,0.098,0.0987,0.1028,0.1054,0.1064,0.1053,0.1105,0.1116,0.1165,0.1207,0.1164,0.1168,0.1282,0.1283,0.1285,0.1332,0,0,0,0,0,0,0.0831,0.0844,0.0868,0.0899,0.0913,0.0979,0.098,0.0988,0.1029,0.1034,0.1087,0.1096,0.1106,0.1159,0.1169,0.1211,0.1171,0.128,0.1282,0.1284,0.133,0.1335,0.134,0,0,0,0,0,0.0826,0.0851,0.0869,0.088,0.0942,0.098,0.0988,0.1018,0.1031,0.1055,0.1083,0.1095,0.1178,0.1163,0.1174,0.1219,0.1279,0.1282,0.1284,0.1327,0.1334,0.134,0,0,0,0,0,0,0.0809,0.0859,0.0879,0.0919,0.0956,0.0988,0.1014,0.1034,0.1076,0.1088,0.1109,0.1119,0.118,0.1187,0.117,0.1256,0.1231,0.1236,0.126,0.1267,0.1272,0.1267,0.1174,0,0,0,0,0,0.0816,0.0851,0.0894,0.0929,0.0951,0.0989,0.1012,0.1036,0.107,0.1091,0.1123,0.1157,0.1193,0.122,0.125,0.1299,0.1305,0.1332,0.1338,0.1342,0.1344,0.1383,0.1392,0.1292,0.1292,0.1292,0,0,0.082,0.0851,0.0872,0.0928,0.0961,0.0998,0.1005,0.1052,0.1086,0.1095,0.1156,0.1183,0.1209,0.1262,0.129,0.1278,0.1374,0.1345,0.1349,0.1348,0.1386,0.1396,0.1404,0.1294,0.1294,0.1293,0,0,0.0835,0.0876,0.0909,0.0939,0.0992,0.102,0.104,0.1091,0.1121,0.1177,0.119,0.1233,0.1296,0.1314,0.1333,0.1385,0.1401,0.1406,0.1435,0.1473,0.1482,0.1489,0.1512,0.1521,0.1409,0.1409,0.1409,0,0.084,0.0887,0.0924,0.0956,0.0986,0.1034,0.1074,0.1109,0.1167,0.1193,0.1205,0.1292,0.1318,0.1371,0.1391,0.14,0.142,0.1411,0.1481,0.1488,0.1495,0.1516,0.1526,0.1412,0.1411,0.1411,0.1411,0,0.0869,0.0913,0.0934,0.0996,0.1034,0.1076,0.1127,0.1171,0.1218,0.125,0.1323,0.1354,0.1405,0.1423,0.1429,0.1494,0.1492,0.1484,0.1465,0.1508,0.1527,0.1537,0.1415,0.1414,0.1414,0.1413,0,0,0.0876,0.0944,0.0956,0.0984,0.106,0.1091,0.1154,0.1221,0.1264,0.1325,0.1382,0.1442,0.1467,0.1487,0.1504,0.1535,0.1604,0.1539,0.154,0.1562,0.1689,0.1592,0.1592,0.1619,0.1621,0.1622,0.1684,0,0.0897,0.0955,0.099,0.1053,0.1091,0.1143,0.1191,0.1253,0.1317,0.138,0.1424,0.1492,0.1489,0.1531,0.1562,0.1595,0.163,0.1587,0.1643,0.1644,0.1553,0.16,0.1628,0.169,0.1692,0.1694,0.1695,0,0.0923,0.0958,0.1021,0.108,0.1103,0.1146,0.1237,0.1288,0.1376,0.1426,0.1497,0.154,0.1606,0.1599,0.1674,0.1654,0.1682,0.1696,0.1699,0.1595,0.1563,0.1637,0.1711,0.171,0.1709,0.1708,0.1707,0,0.0912,0.0982,0.1032,0.1053,0.1128,0.1167,0.1219,0.1308,0.1361,0.1471,0.1527,0.16,0.1659,0.17,0.1739,0.1726,0.181,0.1791,0.1725,0.1718,0.1766,0.1757,0.1849,0.1849,0.1849,0.1849,0.1849,0,0.0916,0.0956,0.103,0.1051,0.1106,0.1167,0.1242,0.1301,0.1401,0.146,0.1556,0.1609,0.1694,0.1749,0.1767,0.1769,0.1837,0.1736,0.1731,0.1784,0.1776,0.1772,0.1763,0.1851,0.1851,0.185,0.185,0,0.0893,0.0946,0.0995,0.1073,0.1102,0.1144,0.1247,0.1289,0.14,0.1484,0.1529,0.1646,0.1717,0.1775,0.1846,0.1799,0.1813,0.1801,0.1856,0.1852,0.1689,0.1681,0.1728,0.1725,0.1723,0.1721,0.1719,0,0.0882,0.0909,0.0997,0.1023,0.1061,0.1133,0.1173,0.1282,0.1326,0.1483,0.1504,0.1633,0.1695,0.1708,0.1778,0.1807,0.1792,0.1782,0.1728,0.1688,0.1679,0.1675,0.1671,0.1715,0.1714,0.1714,0.1713,0,0.0851,0.0894,0.0935,0.0987,0.1032,0.1072,0.114,0.1166,0.1284,0.1396,0.1458,0.1517,0.1596,0.1647,0.1691,0.1704,0.1772,0.1756,0.1761,0.171,0.1674,0.1666,0.1664,0.1705,0.1706,0.1707,0.1707,0,0.0831,0.0844,0.0901,0.094,0.0989,0.0994,0.1037,0.1084,0.1147,0.1309,0.1324,0.1458,0.1569,0.1595,0.1628,0.1642,0.1621,0.1559,0.1573,0.1583,0.1509,0.144,0.1401,0,0,0,0,0,0.0801,0.0813,0.0843,0.0875,0.0916,0.0945,0.1004,0.1046,0.1157,0.1165,0.1245,0.1313,0.1392,0.1461,0.1451,0.1572,0.1625,0.1553,0.1559,0.1658,0.1668,0.1595,0,0,0,0,0,0,0.0781,0.0815,0.0823,0.0816,0.0827,0.0855,0.089,0.0958,0.0965,0.109,0.1137,0.1243,0.1335,0.1397,0.1434,0.1455,0.1432,0.164,0.1636,0.1653,0.1662,0.1669,0.1598,0,0,0,0,0]},{"header":{"parameterUnit":"m.s-1","parameterCategory":2,"la1":30.2991,"la2":30.254,"lo1":-89.0895,"lo2":-89.0444,"dy":0.0017,"dx":0.0017,"nx":28,"ny":28,"refTime":"2024-08-25T03:00:00:Z","depth":"4","parameterNumber":3,"parameterNumberName":"V-component_of_CURRENTS"},"data":[0,0,0,0,0,0,0,0,0,0,0,0,0,0,0,0,0,0,0,0,0,0,0,0,0,0,0,0,0,0,0,0,0,0,0,0,0,0,0,0,0,0,0,0,0,0,0,0,0,0,0,0,0,0,0,0,0,0,0.0277,0.0277,0,0.0248,0.0248,0.0248,0.0245,0.0245,0.0246,0.0246,0.0201,0.02,0.0198,0,0,0,0,0,0,0,0,0,0,0,0,0,0.0357,0.0356,0.0277,0.0277,0.0277,0.0248,0.0248,0.0248,0.0245,0.0245,0.0246,0.0246,0.0201,0.02,0.0198,0,0,0,0,0,0,0,0,0,0,0,0,0,0.0325,0.0355,0.0277,0.0272,0.0271,0.0249,0.0248,0.0248,0.0245,0.0245,0.0246,0.0246,0.0202,0.02,0.0198,0.0175,0,0,0.0191,0.019,0,0,0,0,0,0,0,0,0.0327,0.0322,0.0273,0.0272,0.0271,0.0251,0.026,0.0223,0.0245,0.0255,0.0246,0.0246,0.0216,0.0212,0.0206,0.0173,0.0171,0.0191,0.0189,0.0189,0.0188,0,0,0,0,0,0,0,0.0329,0.0323,0.0266,0.0273,0.0271,0.028,0.0276,0.0253,0.0233,0.0254,0.0254,0.025,0.0215,0.0209,0.0205,0.0171,0.0191,0.0189,0.0188,0.0187,0.0127,0.0127,0,0,0,0,0,0,0.033,0.0325,0.0267,0.0265,0.03,0.0278,0.0273,0.0257,0.0234,0.0231,0.025,0.025,0.0212,0.0208,0.0204,0.0193,0.0189,0.0186,0.0185,0.0127,0.0127,0.0127,0,0,0,0,0,0,0.0332,0.0324,0.0268,0.0296,0.0289,0.0276,0.0258,0.0256,0.0253,0.0231,0.0227,0.025,0.0212,0.0207,0.0193,0.0191,0.0185,0.0183,0.0128,0.0127,0.0127,0.0161,0,0,0,0,0,0,0.0334,0.0325,0.0319,0.0295,0.0287,0.0259,0.0257,0.0255,0.025,0.025,0.0229,0.0225,0.0212,0.0196,0.0191,0.0188,0.0182,0.0128,0.0128,0.0127,0.016,0.0161,0.0163,0,0,0,0,0,0.0336,0.0325,0.0319,0.0312,0.0277,0.0259,0.0256,0.0249,0.025,0.0249,0.0239,0.0226,0.0189,0.0195,0.0188,0.0184,0.0128,0.0128,0.0127,0.0159,0.0161,0.0163,0,0,0,0,0,0,0.0355,0.0323,0.0316,0.0295,0.0281,0.0259,0.0256,0.025,0.0241,0.0244,0.0224,0.022,0.0205,0.0188,0.0195,0.0164,0.0155,0.0153,0.0182,0.0183,0.0185,0.0207,0.018,0,0,0,0,0,0.0355,0.034,0.0314,0.0298,0.0291,0.0274,0.0268,0.0263,0.0249,0.0246,0.023,0.0213,0.0195,0.0186,0.0167,0.0151,0.0134,0.0143,0.0144,0.0146,0.0158,0.0131,0.0132,0.0125,0.0125,0.0125,0,0,0.0353,0.0339,0.0327,0.0302,0.029,0.0285,0.0272,0.0263,0.0263,0.0241,0.0237,0.0217,0.0192,0.0177,0.0169,0.0165,0.0136,0.0145,0.0146,0.0159,0.0131,0.0132,0.0132,0.0125,0.0125,0.0125,0,0,0.0351,0.0333,0.0322,0.0315,0.0302,0.0294,0.0293,0.0273,0.027,0.0259,0.0245,0.0231,0.0199,0.0188,0.0176,0.0172,0.0144,0.0157,0.0184,0.0157,0.0158,0.0158,0.013,0.0128,0.0158,0.0158,0.0159,0,0.0355,0.0339,0.0318,0.0316,0.0316,0.0301,0.0302,0.0293,0.0274,0.0275,0.0263,0.0231,0.0207,0.0198,0.0197,0.0177,0.0156,0.0181,0.016,0.016,0.016,0.0132,0.0129,0.016,0.016,0.016,0.016,0,0.0344,0.0342,0.0338,0.0331,0.0328,0.0327,0.0315,0.0314,0.0307,0.03,0.0289,0.026,0.0244,0.0226,0.021,0.0198,0.018,0.0166,0.016,0.0163,0.0132,0.0129,0.0162,0.0162,0.0161,0.0161,0,0,0.033,0.0331,0.0332,0.0345,0.0341,0.034,0.0343,0.0344,0.0357,0.0332,0.0341,0.0305,0.0293,0.0279,0.0253,0.0231,0.0203,0.0201,0.0199,0.0181,0.0141,0.0107,0.01,0.0182,0.0182,0.0182,0.0117,0,0.0334,0.0345,0.0341,0.0361,0.0369,0.0368,0.0379,0.038,0.0376,0.038,0.0352,0.0347,0.031,0.0305,0.0277,0.0225,0.0197,0.0222,0.0134,0.0131,0.0108,0.0096,0.0181,0.0114,0.0113,0.0112,0.0112,0,0.0327,0.0342,0.0361,0.0396,0.0399,0.0413,0.044,0.0448,0.0449,0.0446,0.0434,0.0407,0.0377,0.0344,0.0261,0.0277,0.0214,0.017,0.0166,0.0125,0.0091,0.011,0.0105,0.0106,0.0106,0.0107,0.0107,0,0.0338,0.036,0.0384,0.0391,0.042,0.0438,0.0459,0.0472,0.0495,0.0492,0.0503,0.0457,0.0439,0.0361,0.0259,0.0258,0.0163,0.0147,0.0058,0.0055,0.0092,0.0092,0.0087,0.0087,0.0087,0.0088,0.0088,0,0.0347,0.037,0.0397,0.0412,0.046,0.0468,0.0521,0.0531,0.0558,0.0587,0.0544,0.0543,0.0441,0.0369,0.0275,0.0154,0.0169,0.0065,0.0037,0.0105,0.0108,0.0088,0.009,0.0085,0.0086,0.0086,0.0087,0,0.0356,0.0369,0.0406,0.0446,0.0467,0.0503,0.0574,0.0611,0.0626,0.066,0.066,0.0607,0.0505,0.0393,0.026,0.0175,0.0063,0.0014,0.0097,0.0074,-0.0031,-0.0027,-0.0086,-0.0087,-0.0089,-0.009,-0.0091,0,0.0362,0.0379,0.0434,0.0466,0.049,0.0552,0.0601,0.0645,0.0683,0.0691,0.0705,0.0623,0.0564,0.036,0.0235,0.0051,0.002,-0.0039,-0.0035,-0.0027,-0.0048,-0.0042,-0.0037,-0.0093,-0.0094,-0.0094,-0.0095,0,0.0378,0.0396,0.0428,0.0493,0.055,0.0617,0.0684,0.0718,0.0757,0.077,0.073,0.0622,0.0505,0.0347,0.02,0.0069,0.0001,-0.0055,-0.0053,-0.0049,-0.0037,-0.0055,-0.0048,-0.01,-0.0099,-0.0098,-0.0098,0,0.0393,0.0418,0.046,0.0519,0.0592,0.0656,0.0695,0.0732,0.0771,0.0772,0.0751,0.0628,0.056,0.0355,0.0222,0.0086,0.0049,0.0005,0.0003,0.0007,0.0048,0.0079,0.0028,0,0,0,0,0,0.0402,0.0428,0.0482,0.0545,0.0618,0.066,0.0738,0.0769,0.0803,0.0776,0.0766,0.0651,0.0444,0.0363,0.022,0.0189,0.0025,0.0016,-0.0027,-0.0128,-0.0122,-0.0093,0,0,0,0,0,0,0.0408,0.0453,0.0478,0.0559,0.0603,0.0687,0.0738,0.076,0.0748,0.0752,0.0648,0.06,0.0407,0.0519,0.021,0.017,0.012,-0.0074,-0.0078,-0.0131,-0.0126,-0.0121,-0.0089,0,0,0,0,0]}]]